DAMPETORP Weather Reports


time (UTC)temp
F
wind
direction
speed
knots
gust
knots
rain 1hr
in
rain 24hr
in
rain mn
in
humidity
%
barometer
mb
20260506023052 26 49 0.0 0.0 0.00 0.00 0.00 91 1010.9
20260506021553 26 49 0.0 0.0 0.00 0.00 0.00 90 1010.9
20260506020048 26 49 0.0 0.0 0.00 0.00 0.00 90 1010.8
20260506014550 26 49 0.0 0.0 0.00 0.00 0.00 90 1010.8
20260506013100 26 49 0.0 0.0 0.00 0.00 0.00 89 1010.7
20260506011544 26 49 0.0 0.9 0.00 0.00 0.00 89 1010.7
20260506010042 26 49 0.0 0.0 0.00 0.00 0.00 88 1010.6
20260506004539 27 49 0.0 0.0 0.00 0.00 0.00 88 1010.5
20260506003039 27 49 0.0 0.0 0.00 0.00 0.00 86 1010.4
20260506001538 27 49 0.0 0.0 0.00 0.00 0.00 86 1010.3
20260506000033 28 49 0.0 0.0 0.00 0.00 0.00 85 1010.2
20260505234536 28 49 0.0 0.0 0.00 0.00 0.00 85 1010.2
20260505233029 28 49 0.0 0.0 0.00 0.00 0.00 84 1010.3
20260505231530 28 49 0.0 0.0 0.00 0.00 0.00 84 1010.3
20260505230045 28 49 0.0 0.0 0.00 0.00 0.00 82 1010.2
20260505224524 29 49 0.0 0.0 0.00 0.00 0.00 82 1010.1
20260505223027 29 49 0.0 0.0 0.00 0.00 0.00 82 1010.1
20260505221520 29 49 0.0 0.0 0.00 0.00 0.00 79 1010.1
20260505220016 30 49 0.0 0.0 0.00 0.00 0.00 78 1009.9
20260505214515 31 49 0.0 0.9 0.00 0.00 0.00 76 1009.8
20260505213012 31 49 0.0 0.0 0.00 0.00 0.00 74 1009.8
20260505211509 32 49 0.0 0.0 0.00 0.00 0.00 72 1009.6
20260505210006 33 49 0.0 0.9 0.00 0.00 0.00 69 1009.5
20260505204503 34 49 0.0 0.9 0.00 0.00 0.00 69 1009.4
20260505203002 34 49 0.0 0.0 0.00 0.00 0.00 67 1009.1
20260505201600 34 49 0.0 0.9 0.00 0.00 0.00 66 1009.0
20260505200059 35 48 0.0 0.0 0.00 0.00 0.00 64 1009.0
20260505194604 37 48 0.0 1.7 0.00 0.00 0.00 60 1008.9
20260505193047 38 84 0.0 0.9 0.00 0.00 0.00 59 1008.8
20260505191544 40 101 0.0 0.9 0.00 0.00 0.00 52 1008.7
20260505190045 41 133 0.0 0.9 0.00 0.00 0.00 49 1008.6
20260505184540 44 133 0.0 0.9 0.00 0.00 0.00 42 1008.5
20260505183038 46 133 0.0 0.9 0.00 0.00 0.00 37 1008.3
20260505181537 47 133 0.0 1.7 0.00 0.00 0.00 35 1008.1
20260505180136 47 78 0.9 3.5 0.00 0.00 0.00 34 1008.0
20260505174534 48 124 2.6 5.2 0.00 0.00 0.00 32 1007.9
20260505173042 48 118 1.7 7.8 0.00 0.00 0.00 32 1007.9
20260505171534 48 142 1.7 7.8 0.00 0.00 0.00 31 1007.8
20260505170037 49 166 0.9 7.0 0.00 0.00 0.00 32 1007.7
20260505164547 49 14 2.6 8.7 0.00 0.00 0.00 31 1007.7
20260505163031 50 82 1.7 10.4 0.00 0.00 0.00 30 1007.7
20260505161529 50 25 4.3 11.3 0.00 0.00 0.00 30 1007.7
20260505153035 50 153 5.2 8.7 0.00 0.00 0.00 30 1007.6
20260505151525 50 148 2.6 12.2 0.00 0.00 0.00 31 1007.6
20260505124514 49 129 2.6 11.3 0.00 0.00 0.00 34 1007.5
20260505123012 48 75 5.2 9.6 0.00 0.00 0.00 34 1007.5
20260505121511 49 338 4.3 12.2 0.00 0.00 0.00 35 1007.6
20260505120010 48 9 1.7 9.6 0.00 0.00 0.00 39 1007.4
20260505114510 49 44 1.7 9.6 0.00 0.00 0.00 37 1007.2
20260505113007 48 131 1.7 8.7 0.00 0.00 0.00 37 1007.2
20260505111507 49 34 1.7 9.6 0.00 0.00 0.00 38 1007.1
20260505101604 48 130 4.3 10.4 0.00 0.00 0.00 38 1006.9
20260505100059 48 100 2.6 11.3 0.00 0.00 0.00 40 1006.6
20260505094606 48 143 5.2 8.7 0.00 0.00 0.00 41 1006.6
20260505093055 48 105 4.3 8.7 0.00 0.00 0.00 41 1006.6
20260505091558 47 65 5.2 13.0 0.00 0.00 0.00 41 1006.6
20260505090056 47 96 2.6 11.3 0.00 0.00 0.00 46 1006.5
20260505084549 47 86 3.5 15.6 0.00 0.00 0.00 46 1006.4
20260505083048 47 121 2.6 9.6 0.00 0.00 0.00 46 1006.4
20260505081556 46 108 5.2 11.3 0.00 0.00 0.00 49 1006.2
20260505080046 46 53 2.6 8.7 0.00 0.00 0.00 50 1006.2
20260505074554 46 150 1.7 8.7 0.00 0.00 0.00 53 1006.0
20260505073036 46 97 1.7 8.7 0.00 0.00 0.00 54 1006.0
20260505071633 46 62 3.5 10.4 0.00 0.00 0.00 55 1005.9
20260505070032 44 53 2.6 10.4 0.00 0.00 0.00 57 1005.7
20260505064533 44 165 3.5 8.7 0.00 0.00 0.00 58 1005.7
20260505063035 44 138 1.7 10.4 0.00 0.00 0.00 61 1005.6
20260505061532 43 145 1.7 7.0 0.00 0.00 0.00 64 1005.5
20260505060027 43 34 1.7 7.0 0.00 0.00 0.00 65 1005.4
20260505054528 43 115 3.5 8.7 0.00 0.00 0.00 65 1005.3
20260505053022 43 121 1.7 7.8 0.00 0.00 0.00 67 1005.2
20260505051520 42 143 1.7 7.0 0.00 0.00 0.00 67 1005.1
20260505041514 41 53 0.9 3.5 0.00 0.02 0.00 70 1004.7
20260505040012 41 61 0.9 4.3 0.00 0.03 0.00 70 1004.5
20260505034514 40 143 0.9 4.3 0.00 0.03 0.00 70 1004.4
20260505033018 40 147 0.0 4.3 0.00 0.03 0.00 72 1004.3
20260505031507 40 139 0.9 3.5 0.00 0.03 0.00 72 1004.2
20260505030005 40 133 0.9 3.5 0.00 0.07 0.00 73 1004.2
20260505024506 40 105 0.0 1.7 0.00 0.07 0.00 72 1004.1